Regional Weather Roundup
Issued by NWS

Home | Current Version | Previous Version | Text Only | Print | Product List | Glossary Off
Versions: 1 2 3 4 5 6 7 8 9 10 11 12 13 14 15 16 17 18 19 20 21 22 23 24 25 26 27

000
ASUS45 KCYS 182310
RWRWY

WYOMING REGIONAL WEATHER ROUNDUP
NATIONAL WEATHER SERVICE CHEYENNE WY
400 PM MST WED JAN 18 2017

NOTE:  "FAIR" INDICATES FEW OR NO CLOUDS BELOW 12,000 FEET
WITH NO SIGNIFICANT WEATHER AND/OR OBSTRUCTIONS TO VISIBILITY.

WYZ001-190000-
YELLOWSTONE NATIONAL PARK

CITY           SKY/WX    TMP DP  RH WIND       PRES   REMARKS
LK YELLOWSTONE   N/A     22  16  78 CALM      29.90F
W YELLOWSTONE  NOT AVBL

$$
WYZ002>013-054>058-071-098>099-190000-
NORTHERN WYOMING

CITY           SKY/WX    TMP DP  RH WIND       PRES   REMARKS
JACKSON        SUNNY      9  10 100 CALM      29.93F
CODY           FAIR      26  17  68 CALM      29.73S
GREYBULL       FAIR      20   9  62 E3        29.75F
WORLAND        FAIR      27  19  72 NE5       29.74R WCI  22
SHERIDAN       FAIR      30  20  66 CALM      29.62R
BUFFALO        FAIR      41  25  53 S5        29.65S
GILLETTE       FAIR      47  24  40 S5        29.66R
HULETT         FAIR      45  25  45 SW8       29.66R
NEWCASTLE      FAIR      37  25  60 CALM      29.70S

$$
WYZ014>020-022>026-101>103-190000-
CENTRAL WYOMING

CITY           SKY/WX    TMP DP  RH WIND       PRES   REMARKS
BIG PINEY      FAIR       7   1  76 E5        29.91F WCI  -2
PINEDALE       FAIR      14   3  62 CALM      29.91F
DUBOIS         NOT AVBL
LANDER         FAIR      21  10  62 N3        29.80F
RIVERTON       MIX PCPN  20   9  62 CALM      29.82F
CASPER         FAIR      38  18  44 SW25G44   29.78R WCI  27
DOUGLAS        FAIR      52  20  28 NW7       29.72S

$$
WYZ021-027>030-104>119-190000-
SOUTHERN WYOMING

CITY           SKY/WX    TMP DP  RH WIND       PRES   REMARKS
EVANSTON       FAIR      27   9  46 CALM      29.90F
ROCK SPRINGS   FAIR      15   6  67 CALM      29.91F
RAWLINS        FAIR      34  19  54 N3        29.91F
LARAMIE        FAIR      25  18  74 N6        29.85S WCI  18
CHEYENNE       FAIR      50  16  25 W8        29.78S
TORRINGTON     FAIR      53  19  26 SW9       29.72S

$$




USA.gov is the U.S. government's official web portal to all federal, state and local government web resources and services.